Flag for Germany Weather past 2 weeks in Pirmasens, Rhineland-Palatinate, Germany

Now
62 °F

Passing clouds.


Feels Like: 62 °F
Forecast: 47 / 62 °F
Wind: 9 mph from Southwest

Location: Ramstein

Current Time: May 29, 2015 at 11:24:05 AM

Latest Report: May 29, 2015 at 10:58 AM


Visibility: N/A

Pressure: 29.91 "Hg

Humidity: 59%

Dew point: 47 °F

Location of PirmasensLocation

Historic Weather in Pirmasens — Graph

°F

Pirmasens temperature yesterday

Maximum temperature yesterday: 70 °F (at 2:58 PM)
Minimum temperature yesterday: 36 °F (at 5:58 AM)
Average temperature yesterday: 55 °F

Past Weeks' High & Low Weather Summary

 TemperatureHumidityPressure
High72 °F (May 18, 5:58 PM)100% (May 15, 3:03 AM)30.35 "Hg (May 15, 3:03 AM)
Low32 °F (May 21, 3:58 AM)33% (May 18, 5:58 PM)29.69 "Hg (May 19, 2:58 AM)
Average55 °F70%30.07 "Hg
* Reported May 14 9:58 AM — May 29 9:58 AM, Pirmasens, Weather by CustomWeather, © 2015

Note: Actual official high and low records may vary slightly from our data, if they occured in-between our weather recording intervals... More about our weather records

Advertising

Pirmasens weather history for previous 24 hours

 ConditionsComfort  
Time TempWeatherWind HumidityBarometerVisibility
9:58 AM
Fri, May 29
63 °FPassing clouds.6 mph56%29.91 "HgN/A
8:58 AM57 °FPartly sunny.2 mph72%29.92 "HgN/A
7:58 AM52 °FPassing clouds.No wind83%29.94 "HgN/A
6:58 AM46 °FPartly sunny.1 mph100%29.94 "HgN/A
5:58 AM46 °FPassing clouds.No wind99%29.94 "HgN/A
4:58 AM45 °FPassing clouds.No wind100%29.96 "HgN/A
3:58 AM45 °FPassing clouds.No wind100%29.96 "HgN/A
2:58 AM50 °FPassing clouds.2 mph88%29.97 "HgN/A
1:58 AM53 °FClear.3 mph79%29.98 "HgN/A
12:58 AM54 °FClear.2 mph74%29.98 "HgN/A
11:58 PM
Thu, May 28
54 °FClear.2 mph75%29.98 "HgN/A
10:58 PM55 °FClear.5 mph71%29.98 "HgN/A
9:58 PM59 °FPassing clouds.7 mph63%29.97 "HgN/A
8:58 PM64 °FPassing clouds.10 mph55%29.96 "HgN/A
7:58 PM66 °FScattered clouds.16 mph49%29.95 "HgN/A
6:58 PM68 °FPassing clouds.16 mph45%29.95 "HgN/A
5:58 PM70 °FPassing clouds.16 mph40%29.95 "HgN/A
4:58 PM68 °FScattered clouds.13 mph40%29.96 "HgN/A
3:58 PM67 °FPartly sunny.12 mph44%29.97 "HgN/A
2:58 PM70 °FScattered clouds.10 mph40%29.98 "HgN/A
1:58 PM68 °FPassing clouds.12 mph46%30.00 "HgN/A
12:58 PM66 °FPassing clouds.13 mph49%30.02 "HgN/A
11:58 AM65 °FBroken clouds.9 mph47%30.04 "HgN/A
Weather by CustomWeather, © 2015

See weather overviewHow to use our weather pages